Stations météo

réclame
Mon MeteoGroup
Liscombe, Grande-Bretagne (3710): Température de l'air & dewpoint: 22.05.2018 06:00:00 - 28.05.2018 06:00:00 (BST)Liscombe, Grande-Bretagne (3710): Température de l'air -20cm & Température de l'air -100cm: 22.05.2018 06:00:00 - 28.05.2018 06:00:00 (BST)Liscombe, Grande-Bretagne (3710): Vitesse du vent & gusts: 22.05.2018 06:00:00 - 28.05.2018 06:00:00 (BST)Liscombe, Grande-Bretagne (3710): Direction du vent: 22.05.2018 06:00:00 - 28.05.2018 06:00:00 (BST)Liscombe, Grande-Bretagne (3710): reduced air pressure: 22.05.2018 06:00:00 - 28.05.2018 06:00:00 (BST)Liscombe, Grande-Bretagne (3710): visibility: 22.05.2018 06:00:00 - 28.05.2018 06:00:00 (BST)Liscombe, Grande-Bretagne (3710): Ensoleillement: 22.05.2018 06:00:00 - 28.05.2018 06:00:00 (BST)Liscombe, Grande-Bretagne (3710): Quantités de précipitations: 22.05.2018 06:00:00 - 28.05.2018 06:00:00 (BST)
Date & Time tt [°C] td [°C] tt -20cm [°C] tt -100cm [°C] ff [km/h] ff [knt] fx [km/h] fx [knt] dd ppp [hPa] vv [km] sd [min] rr [mm]
28.05.2018 06:00:00 - - - - - - - - - - - - -
28.05.2018 05:00:00 - - - - - - - - - - - - -
28.05.2018 04:00:00 - - - - - - - - - - - - -
28.05.2018 03:00:00 - - - - - - - - - - - - -
28.05.2018 02:00:00 - - - - - - - - - - - - -
28.05.2018 01:00:00 - - - - - - - - - - - - -
28.05.2018 00:00:00 - - - - - - - - - - - - -
27.05.2018 23:00:00 - - - - - - - - - - - - -
27.05.2018 22:00:00 - - - - - - - - - - - - -
27.05.2018 21:00:00 - - - - - - - - - - - - -
27.05.2018 20:00:00 - - - - - - - - - - - - -
27.05.2018 19:00:00 - - - - - - - - - - - - -
27.05.2018 18:00:00 - - - - - - - - - - - - -
27.05.2018 17:00:00 - - - - - - - - - - - - -
27.05.2018 16:00:00 - - - - - - - - - - - - -
27.05.2018 15:00:00 - - - - - - - - - - - - -
27.05.2018 14:00:00 - - - - - - - - - - - - -
27.05.2018 13:00:00 - - - - - - - - - - - - -
27.05.2018 12:00:00 - - - - - - - - - - - - -
27.05.2018 11:00:00 - - - - - - - - - - - - -
27.05.2018 10:00:00 - - - - - - - - - - - - -
27.05.2018 09:00:00 - - - - - - - - - - - - -
27.05.2018 08:00:00 - - - - - - - - - - - - -
27.05.2018 07:00:00 - - - - - - - - - - - - -
27.05.2018 06:00:00 - - - - - - - - - - - - -
27.05.2018 05:00:00 - - - - - - - - - - - - -
27.05.2018 04:00:00 - - - - - - - - - - - - -
27.05.2018 03:00:00 - - - - - - - - - - - - -
27.05.2018 02:00:00 - - - - - - - - - - - - -
27.05.2018 01:00:00 - - - - - - - - - - - - -
27.05.2018 00:00:00 - - - - - - - - - - - - -
26.05.2018 23:00:00 - - - - - - - - - - - - -
26.05.2018 22:00:00 - - - - - - - - - - - - -
26.05.2018 21:00:00 17,6 16,1 - - 31 17 54 29 ENE 1014,8 8 0 0,0
26.05.2018 20:00:00 17,7 16,2 - - 26 14 - - NE 1014,7 6 0 0,0
26.05.2018 19:00:00 17,3 16,4 - - 24 13 - - NE 1015,3 4,3 6 0,0
26.05.2018 18:00:00 15,8 15,5 - - 21 11 - - NE 1015,9 1,7 0 0,0
26.05.2018 17:00:00 15,7 15,4 - - 22 12 48 26 NE 1016,5 1,7 0 0,0
26.05.2018 16:00:00 14,8 14,8 - - 28 15 - - NE 1017,1 1,4 0 0,0
26.05.2018 15:00:00 13,7 13,7 - - 29 16 - - ENE 1017,7 0,6 0 0,0
26.05.2018 14:00:00 14,0 14,0 - - 24 13 - - NE 1018,0 1,0 0 0,0
26.05.2018 13:00:00 13,0 13,0 - - 24 13 - - NE 1019,0 0,6 0 0,0
26.05.2018 12:00:00 12,6 12,5 - - 22 12 - - NE 1019,3 0,3 0 0,8
26.05.2018 11:00:00 12,5 12,4 - - 24 13 - - ENE 1019,8 0,5 0 0,6
26.05.2018 10:00:00 12,4 12,4 15,5 13,2 26 14 - - ENE 1019,7 2,1 0 0,0
26.05.2018 09:00:00 12,5 12,4 - - 28 15 - - NE 1019,4 1,9 0 0,0
26.05.2018 08:00:00 12,3 12,3 - - 24 13 - - ENE 1019,6 1,9 0 0,0
26.05.2018 07:00:00 12,0 12,0 - - 22 12 - - NE 1019,7 1,3 0 0,2
26.05.2018 06:00:00 11,6 11,6 - - 24 13 - - ENE 1019,5 1,7 0 0,0
26.05.2018 05:00:00 11,3 11,2 - - 24 13 - - ENE 1019,7 2,3 0 0,0
26.05.2018 04:00:00 11,7 11,7 - - 18 10 - - NE 1019,6 0,7 0 0,0
26.05.2018 03:00:00 11,6 11,6 - - 16 9 - - NE 1019,7 1,4 0 0,0
26.05.2018 02:00:00 10,6 10,6 - - 16 9 - - NE 1019,9 2,0 0 0,0
26.05.2018 01:00:00 10,5 10,5 - - 16 9 - - ENE 1020,1 1,1 - 0,0
26.05.2018 00:00:00 10,7 10,7 - - 16 9 - - ENE 1019,7 0,5 0 0,0
25.05.2018 23:00:00 10,9 10,7 - - 15 8 - - NE 1019,5 4,4 0 0,0
25.05.2018 22:00:00 11,8 11,4 - - 13 7 - - ENE 1019,2 12 0 0,0
25.05.2018 21:00:00 11,8 11,7 - - 13 7 - - ENE 1018,7 6 0 0,0
25.05.2018 20:00:00 12,1 11,6 - - 9 5 - - E 1018,5 3,6 0 0,0
25.05.2018 19:00:00 12,8 11,8 - - 5 3 - - NE 1018,2 12 0 0,0
25.05.2018 18:00:00 13,5 12,1 - - 5 3 - - NE 1018,2 24 0 0,0
25.05.2018 17:00:00 13,3 11,9 - - 8 4 - - ENE 1018,5 29 0 0,0
25.05.2018 16:00:00 15,0 13,2 - - 9 5 - - N 1018,3 29 0 0,0
25.05.2018 15:00:00 14,3 12,5 - - 8 4 - - N 1018,6 9 0 0,2
25.05.2018 14:00:00 15,2 12,7 - - 11 6 - - N 1018,5 18 0 0,0
25.05.2018 13:00:00 15,5 12,0 - - 15 8 - - N 1018,5 45 0 0,0
25.05.2018 12:00:00 14,8 12,4 - - 9 5 - - N 1018,6 18 0 0,0
25.05.2018 11:00:00 13,0 12,0 - - 15 8 - - NNE 1019,0 12 0 0,0
25.05.2018 10:00:00 12,5 11,6 15,7 13,2 21 11 - - NE 1018,9 4,4 0 0,0
25.05.2018 09:00:00 12,4 11,6 - - 18 10 - - NE 1018,8 3,5 0 0,0
25.05.2018 08:00:00 12,2 11,9 - - 18 10 - - NE 1018,8 2,2 0 0,0
25.05.2018 07:00:00 11,7 11,4 - - 13 7 - - NE 1018,7 1,5 0 0,0
25.05.2018 06:00:00 11,6 11,4 - - 15 8 - - NE 1018,8 1,5 0 0,0
25.05.2018 05:00:00 11,7 11,6 - - 11 6 - - NE 1018,6 2,0 0 0,0
25.05.2018 04:00:00 11,6 11,6 - - 9 5 - - NNE 1018,7 1,4 0 0,2
25.05.2018 03:00:00 11,5 11,5 - - 2 1 - - ENE 1019,0 1,0 0 0,4
25.05.2018 02:00:00 11,7 11,7 - - 9 5 - - NNE 1019,2 2,0 0 0,4
25.05.2018 01:00:00 11,9 11,9 - - 13 7 - - NNE 1019,3 1,4 - 0,4
25.05.2018 00:00:00 11,4 11,4 - - 15 8 - - NNE 1019,6 1,0 0 0,4
24.05.2018 23:00:00 11,1 11,1 - - 15 8 - - NE 1019,8 1,2 0 0,6
24.05.2018 22:00:00 10,5 10,5 - - 16 9 - - NNE 1020,2 1,3 0 0,4
24.05.2018 21:00:00 10,4 10,4 - - 13 7 - - NNE - - 0 0,6
24.05.2018 20:00:00 10,4 10,4 - - 5 3 - - NNW - - 0 0,0
24.05.2018 19:00:00 10,4 10,4 - - 22 12 - - NE - - 0 0,0
24.05.2018 18:00:00 10,6 10,6 - - 24 13 - - NE 1019,7 0,9 0 0,0
24.05.2018 17:00:00 10,8 10,7 - - 13 7 - - NE 1019,6 2,4 0 0,4
24.05.2018 16:00:00 10,6 10,3 - - 15 8 - - ENE 1020,2 4,3 0 0,0
24.05.2018 15:00:00 11,9 10,9 - - 18 10 - - NE 1020,1 6 0 0,0
24.05.2018 14:00:00 11,2 10,4 - - 21 11 - - NE 1020,3 5 0 0,0
24.05.2018 13:00:00 11,6 9,9 - - 13 7 - - NE 1020,6 7 0 0,0
24.05.2018 12:00:00 11,7 10,6 - - 18 10 - - ENE 1020,6 8 0 0,0
24.05.2018 11:00:00 10,0 9,6 - - 18 10 - - ENE 1021,1 3,8 0 0,0
24.05.2018 10:00:00 10,1 9,4 16,2 13,0 22 12 - - ENE 1021,1 6 0 0,0
24.05.2018 09:00:00 9,4 9,1 - - 22 12 - - ENE 1021,3 5 0 0,0
24.05.2018 08:00:00 8,8 8,5 - - 24 13 - - ENE 1021,4 3,8 0 0,0
24.05.2018 07:00:00 8,7 8,4 - - 24 13 - - ENE 1021,4 4,3 0 0,0
24.05.2018 06:00:00 9,3 8,8 - - 24 13 - - ENE 1021,2 6 0 0,0
24.05.2018 05:00:00 9,9 9,1 - - 13 7 - - NE 1021,3 9 0 0,0
24.05.2018 04:00:00 10,3 8,7 - - 26 14 - - ENE 1021,6 15 0 0,0
24.05.2018 03:00:00 11,2 8,7 - - 22 12 - - NE 1021,4 22 0 0,0
24.05.2018 02:00:00 12,0 10,0 - - 22 12 - - NE 1021,7 18 0 0,0
24.05.2018 01:00:00 12,2 9,7 - - 22 12 - - NE 1022,0 20 - 0,0
24.05.2018 00:00:00 13,2 10,1 - - 15 8 - - NE 1022,3 22 0 0,0
23.05.2018 23:00:00 13,6 9,7 - - 21 11 - - ENE 1022,7 21 0 0,0
23.05.2018 22:00:00 13,1 9,1 - - 15 8 - - NE 1022,8 18 0 0,0
23.05.2018 21:00:00 13,5 9,1 - - 8 4 - - NE 1022,6 25 6 0,0
23.05.2018 20:00:00 15,7 9,6 - - 13 7 - - ENE 1022,3 26 60 0,0
23.05.2018 19:00:00 17,1 9,6 - - 13 7 - - NE 1022,0 25 60 0,0
23.05.2018 18:00:00 17,6 10,5 - - 18 10 - - ENE 1022,0 22 60 0,0
23.05.2018 17:00:00 18,1 12,2 - - 16 9 - - NE 1022,2 20 60 0,0
23.05.2018 16:00:00 17,8 12,4 - - 16 9 - - NE 1022,4 19 60 0,0
23.05.2018 15:00:00 17,1 11,4 - - 21 11 - - NE 1022,8 20 60 0,0
23.05.2018 14:00:00 16,8 11,7 - - 16 9 - - ENE 1023,0 17 60 0,0
23.05.2018 13:00:00 15,2 10,7 - - 18 10 - - ENE 1023,4 16 60 0,0
23.05.2018 12:00:00 13,3 9,8 - - 22 12 - - NE 1023,6 14 60 0,0
23.05.2018 11:00:00 12,7 10,3 - - 26 14 - - NNE 1023,5 13 60 0,0
23.05.2018 10:00:00 11,4 9,3 16,2 12,9 28 15 - - NE 1023,5 7 60 0,0
23.05.2018 09:00:00 9,9 8,8 - - 31 17 - - NE 1023,5 7 36 0,0
23.05.2018 08:00:00 8,8 8,7 - - 29 16 46 25 NE 1023,5 3,2 0 0,0
23.05.2018 07:00:00 8,7 8,3 - - 29 16 - - NE 1023,1 5 0 0,0
23.05.2018 06:00:00 9,3 8,8 - - 31 17 - - NE 1022,6 6 0 0,0
23.05.2018 05:00:00 9,5 9,0 - - 28 15 - - NE 1022,2 6 0 0,0
23.05.2018 04:00:00 10,1 9,3 - - 24 13 - - NE 1022,3 7 0 0,0
23.05.2018 03:00:00 10,5 9,4 - - 16 9 - - NE 1022,3 12 0 0,0
23.05.2018 02:00:00 10,8 9,3 - - 15 8 - - NNE 1022,4 17 0 0,0
23.05.2018 01:00:00 11,5 8,9 - - 11 6 - - NE 1022,3 22 - 0,0
23.05.2018 00:00:00 12,6 9,1 - - 13 7 - - NE 1021,9 25 0 0,0
22.05.2018 23:00:00 12,9 8,7 - - 11 6 - - NNE 1021,4 25 0 0,0
22.05.2018 22:00:00 12,7 8,9 - - 11 6 - - NNE 1020,8 25 0 0,0
22.05.2018 21:00:00 13,6 8,9 - - 9 5 - - NNE 1019,9 25 6 0,0
22.05.2018 20:00:00 16,0 9,3 - - 8 4 - - NNE 1019,2 29 60 0,0
22.05.2018 19:00:00 18,5 9,3 - - 11 6 - - NNE 1018,6 30 60 0,0
22.05.2018 18:00:00 18,4 8,7 - - 13 7 - - NNE 1018,5 29 60 0,0
22.05.2018 17:00:00 19,1 9,8 - - 9 5 - - E 1018,1 30 60 0,0
22.05.2018 16:00:00 18,6 9,3 - - 11 6 - - NE 1018,1 35 60 0,0
22.05.2018 15:00:00 19,4 10,3 - - 13 7 - - NNE 1018,0 35 60 0,0
22.05.2018 14:00:00 18,6 10,8 - - 11 6 - - NE 1017,9 29 60 0,0
22.05.2018 13:00:00 18,1 10,0 - - 16 9 - - NE 1018,1 35 36 0,0
22.05.2018 12:00:00 16,3 11,0 - - 13 7 - - NNE 1018,2 27 12 0,0
22.05.2018 11:00:00 15,8 11,0 - - 15 8 - - NNE 1017,9 26 12 0,0
22.05.2018 10:00:00 15,2 8,9 16,0 12,7 21 11 - - NE 1017,7 29 36 0,0
22.05.2018 09:00:00 13,6 9,9 - - 13 7 - - NNE 1017,9 25 0 0,0
22.05.2018 08:00:00 12,7 9,7 - - 11 6 - - NNE 1017,6 16 12 0,0
22.05.2018 07:00:00 11,9 8,9 - - 15 8 - - NNE 1017,1 21 0 0,0
22.05.2018 06:00:00 11,9 8,5 - - 13 7 - - NNE 1016,7 20 0 0,0

tt = Température de l'air
td = dewpoint
tt -20cm = Température de l'air -20cm
tt -100cm = Température de l'air -100cm
ff = Vitesse du vent
fx = gusts
dd = Direction du vent
ppp = reduced air pressure
vv = visibility
sd = Ensoleillement
rr = Quantités de précipitations

stations d'obs. à proximité